[[{"header":{"parameterUnit":"m.s-1","parameterCategory":1,"la1":30.2991,"la2":30.254,"lo1":-89.0895,"lo2":-89.0444,"dy":0.0017,"dx":0.0017,"nx":28,"ny":28,"refTime":"2024-04-29T03:00:00:Z","depth":0,"parameterNumber":2,"parameterNumberName":"U-component_of_WINDS"},"data":[0,0,0,0,0,0,0,0,0,0,0,0,0,0,0,0,0,0,0,0,0,0,0,0,0,0,0,0,0,0,0,0,0,0,0,0,0,0,0,0,0,0,0,0,0,0,0,0,0,0,0,0,0,0,0,0,0,0,-6.3905,-6.3906,0,-6.4063,-6.4064,-6.4066,-6.4061,-6.4059,-6.4057,-6.4055,-6.421,-6.4216,-6.4222,0,0,0,0,0,0,0,0,0,0,0,0,0,-6.3593,-6.3599,-6.3904,-6.3906,-6.3908,-6.4062,-6.4065,-6.4067,-6.4062,-6.4059,-6.4056,-6.4054,-6.4208,-6.4216,-6.4223,0,0,0,0,0,0,0,0,0,0,0,0,0,-6.3737,-6.3601,-6.3904,-6.3925,-6.3928,-6.4062,-6.4065,-6.4067,-6.4062,-6.4059,-6.4056,-6.4053,-6.4206,-6.4215,-6.4224,-6.4346,0,0,-6.4252,-6.4256,0,0,0,0,0,0,0,0,-6.3729,-6.3749,-6.392,-6.3923,-6.3927,-6.4039,-6.4012,-6.4161,-6.4063,-6.4011,-6.4055,-6.4051,-6.4156,-6.4169,-6.4205,-6.4353,-6.436,-6.4253,-6.4259,-6.4263,-6.4265,0,0,0,0,0,0,0,-6.3719,-6.3742,-6.3967,-6.3922,-6.3927,-6.3924,-6.3941,-6.404,-6.4099,-6.4015,-6.4015,-6.4034,-6.4157,-6.4196,-6.4209,-6.4362,-6.4253,-6.4261,-6.4267,-6.427,-6.4618,-6.4622,0,0,0,0,0,0,-6.3706,-6.3733,-6.3962,-6.3972,-6.3818,-6.3932,-6.3951,-6.4006,-6.4098,-6.4109,-6.4037,-6.4034,-6.4182,-6.4198,-6.4214,-6.4362,-6.4263,-6.4271,-6.4277,-6.4614,-6.4619,-6.4623,0,0,0,0,0,0,-6.3699,-6.3726,-6.3955,-6.3853,-6.3882,-6.3941,-6.4003,-6.4011,-6.4051,-6.4115,-6.4125,-6.4067,-6.418,-6.4201,-6.4314,-6.4368,-6.4275,-6.4284,-6.461,-6.4616,-6.4621,-6.466,0,0,0,0,0,0,-6.369,-6.3724,-6.3771,-6.3854,-6.3887,-6.4054,-6.4007,-6.4017,-6.4067,-6.4064,-6.4145,-6.4155,-6.4179,-6.43,-6.4323,-6.4379,-6.4291,-6.4605,-6.4613,-6.4619,-6.4654,-6.4666,-6.4676,0,0,0,0,0,-6.3679,-6.3775,-6.3774,-6.3801,-6.3949,-6.4057,-6.4076,-6.4103,-6.4072,-6.4119,-6.4161,-6.4153,-6.4359,-6.4312,-6.4337,-6.4397,-6.4602,-6.4611,-6.4619,-6.4649,-6.4663,-6.4676,0,0,0,0,0,0,-6.3694,-6.3786,-6.3786,-6.3912,-6.3977,-6.4056,-6.4117,-6.4118,-6.4191,-6.4185,-6.4214,-6.4233,-6.4345,-6.4382,-6.4328,-6.452,-6.4476,-6.449,-6.449,-6.4505,-6.4516,-6.4503,-6.4299,0,0,0,0,0,-6.3713,-6.3795,-6.387,-6.3973,-6.4006,-6.4056,-6.4104,-6.412,-6.4188,-6.4214,-6.4264,-6.4328,-6.4408,-6.4459,-6.4535,-6.4661,-6.4677,-6.4714,-6.4725,-6.4734,-6.4745,-6.4813,-6.4829,-6.465,-6.465,-6.465,0,0,-6.3751,-6.3811,-6.386,-6.3978,-6.403,-6.4113,-6.4079,-6.4167,-6.4228,-6.4227,-6.4336,-6.4376,-6.4449,-6.4568,-6.4623,-6.4603,-6.4799,-6.4745,-6.4751,-6.4757,-6.4823,-6.484,-6.4855,-6.4656,-6.4655,-6.4654,0,0,-6.3862,-6.3917,-6.4009,-6.4063,-6.4143,-6.4176,-6.4199,-6.4278,-6.4305,-6.4416,-6.4417,-6.4489,-6.4625,-6.4677,-6.4722,-6.4856,-6.485,-6.488,-6.4937,-6.5003,-6.5017,-6.5029,-6.5075,-6.5091,-6.4891,-6.4891,-6.4891,0,-6.3898,-6.4024,-6.4055,-6.4145,-6.4196,-6.4202,-6.4295,-6.4345,-6.4445,-6.448,-6.4457,-6.4629,-6.4679,-6.481,-6.4843,-6.4879,-6.4904,-6.4869,-6.5013,-6.5026,-6.5038,-6.5081,-6.5099,-6.4894,-6.4894,-6.4893,-6.4893,0,-6.4063,-6.4151,-6.4215,-6.4315,-6.4373,-6.4464,-6.4508,-6.4563,-6.4575,-6.461,-6.4722,-6.4784,-6.4872,-6.4906,-6.4917,-6.5039,-6.5023,-6.5007,-6.4963,-6.5057,-6.5099,-6.5116,-6.4898,-6.4897,-6.4896,-6.4895,0,0,-6.4184,-6.4303,-6.4325,-6.4371,-6.4461,-6.4529,-6.462,-6.4709,-6.4755,-6.4825,-6.49,-6.5017,-6.5003,-6.5053,-6.5071,-6.5129,-6.5229,-6.5105,-6.5107,-6.5124,-6.5365,-6.5375,-6.5394,-6.5228,-6.5231,-6.5234,-6.5358,0,-6.4303,-6.4466,-6.4498,-6.4638,-6.4718,-6.4727,-6.4806,-6.4869,-6.4905,-6.4977,-6.5016,-6.5098,-6.5073,-6.5104,-6.5163,-6.5204,-6.5277,-6.5197,-6.5295,-6.5299,-6.5273,-6.5416,-6.5426,-6.554,-6.5374,-6.5377,-6.5379,0,-6.4462,-6.4538,-6.4687,-6.4768,-6.4802,-6.4873,-6.4957,-6.5027,-6.5099,-6.5121,-6.5179,-6.5191,-6.5284,-6.524,-6.5367,-6.5312,-6.5355,-6.5382,-6.5387,-6.5394,-6.5342,-6.5424,-6.5577,-6.5593,-6.5406,-6.5403,-6.5402,0,-6.4532,-6.4672,-6.4779,-6.4818,-6.4916,-6.4965,-6.5007,-6.5077,-6.5128,-6.5202,-6.5236,-6.5319,-6.5364,-6.5427,-6.5461,-6.5426,-6.5586,-6.5544,-6.5604,-6.5603,-6.5634,-6.5631,-6.5793,-6.5667,-6.5667,-6.5667,-6.5666,0,-6.4659,-6.4749,-6.4813,-6.4878,-6.4979,-6.5016,-6.5114,-6.5156,-6.5218,-6.529,-6.5303,-6.5371,-6.5413,-6.5486,-6.5513,-6.5613,-6.5634,-6.5653,-6.5658,-6.565,-6.5647,-6.5676,-6.5667,-6.5671,-6.567,-6.5669,-6.5669,0,-6.4753,-6.48,-6.4917,-6.5001,-6.5024,-6.5094,-6.5165,-6.5228,-6.5266,-6.5358,-6.5381,-6.5439,-6.5526,-6.5567,-6.5674,-6.5692,-6.5806,-6.5807,-6.5782,-6.5783,-6.584,-6.5833,-6.6023,-6.6049,-6.5909,-6.591,-6.5911,0,-6.4829,-6.4899,-6.4992,-6.5042,-6.5087,-6.5168,-6.5222,-6.5261,-6.5316,-6.5404,-6.5456,-6.5545,-6.5617,-6.5755,-6.5805,-6.5888,-6.5889,-6.5951,-6.5901,-6.5891,-6.5887,-6.5881,-6.5888,-6.5958,-6.5959,-6.596,-6.5961,0,-6.4959,-6.4979,-6.5057,-6.5144,-6.5208,-6.5278,-6.5346,-6.5386,-6.5436,-6.5497,-6.5587,-6.5644,-6.5755,-6.5841,-6.5927,-6.5969,-6.5973,-6.5977,-6.5995,-6.5985,-6.5967,-6.5975,-6.5803,-6.5972,-6.5971,-6.597,-6.5969,-6.5969,-6.5045,-6.5107,-6.5182,-6.5269,-6.5325,-6.5389,-6.5452,-6.5499,-6.5575,-6.567,-6.5688,-6.5784,-6.5854,-6.5971,-6.6016,-6.609,-6.6076,-6.6102,-6.6108,-6.6113,-6.6115,-6.5958,-6.6106,-6.6106,-6.6106,-6.6106,-6.6106,0,-6.5173,-6.5223,-6.5302,-6.5398,-6.5466,-6.5468,-6.5543,-6.5599,-6.5684,-6.5751,-6.5822,-6.5926,-6.6011,-6.6069,-6.6155,-6.6203,-6.6207,-6.6224,-6.6219,-6.6228,-6.6124,-6.6099,-6.6219,-6.6219,-6.6219,-6.6219,-6.6219,-6.6219,-6.5248,-6.5353,-6.5382,-6.5515,-6.5564,-6.5659,-6.5702,-6.576,-6.5814,-6.593,-6.6001,-6.604,-6.6103,-6.6193,-6.6271,-6.6286,-6.6315,-6.6332,-6.6346,-6.6247,-6.6235,-6.6224,-6.62,-6.6339,-6.6339,-6.6443,-6.6444,-6.6445]},{"header":{"parameterUnit":"m.s-1","parameterCategory":1,"la1":30.2991,"la2":30.254,"lo1":-89.0895,"lo2":-89.0444,"dy":0.0017,"dx":0.0017,"nx":28,"ny":28,"refTime":"2024-04-29T03:00:00:Z","depth":0,"parameterNumber":3,"parameterNumberName":"V-component_of_WINDS"},"data":[0,0,0,0,0,0,0,0,0,0,0,0,0,0,0,0,0,0,0,0,0,0,0,0,0,0,0,0,0,0,0,0,0,0,0,0,0,0,0,0,0,0,0,0,0,0,0,0,0,0,0,0,0,0,0,0,0,0,5.6696,5.6698,0,5.6829,5.683,5.6832,5.6827,5.6825,5.6823,5.6821,5.6951,5.6956,5.6961,0,0,0,0,0,0,0,0,0,0,0,0,0,5.6434,5.6439,5.6696,5.6698,5.67,5.6829,5.683,5.6832,5.6827,5.6825,5.6823,5.6821,5.6949,5.6955,5.6961,0,0,0,0,0,0,0,0,0,0,0,0,0,5.6555,5.644,5.6696,5.6713,5.6716,5.6828,5.683,5.6833,5.6828,5.6825,5.6822,5.682,5.6947,5.6954,5.6962,5.7064,0,0,5.6986,5.6989,0,0,0,0,0,0,0,0,5.6548,5.6565,5.6709,5.6712,5.6715,5.6809,5.6785,5.691,5.6828,5.6785,5.6821,5.6818,5.6905,5.6916,5.6947,5.7071,5.7076,5.6986,5.6991,5.6994,5.6996,0,0,0,0,0,0,0,5.654,5.6559,5.6748,5.6711,5.6715,5.6712,5.6726,5.6809,5.6858,5.6788,5.6788,5.6805,5.6906,5.6939,5.695,5.7078,5.6986,5.6993,5.6998,5.7001,5.7293,5.7296,0,0,0,0,0,0,5.6528,5.6552,5.6744,5.6752,5.6623,5.6719,5.6735,5.6781,5.6858,5.6867,5.6807,5.6804,5.6928,5.6941,5.6954,5.708,5.6994,5.7001,5.7006,5.729,5.7294,5.7297,0,0,0,0,0,0,5.6523,5.6546,5.6739,5.6652,5.6677,5.6727,5.6779,5.6785,5.6818,5.6872,5.688,5.6832,5.6926,5.6943,5.7038,5.7084,5.7005,5.7012,5.7286,5.7291,5.7295,5.7331,0,0,0,0,0,0,5.6515,5.6544,5.6584,5.6653,5.6681,5.6822,5.6782,5.679,5.6833,5.683,5.6897,5.6906,5.6925,5.7026,5.7045,5.7093,5.7018,5.7282,5.7288,5.7294,5.7326,5.7336,5.7345,0,0,0,0,0,5.6506,5.6587,5.6586,5.661,5.6733,5.6824,5.684,5.6863,5.6836,5.6877,5.6911,5.6903,5.7076,5.7036,5.7058,5.7108,5.7279,5.7287,5.7294,5.7321,5.7334,5.7345,0,0,0,0,0,0,5.652,5.6597,5.6596,5.6703,5.6758,5.6824,5.6875,5.6876,5.6937,5.6932,5.6955,5.6971,5.7065,5.7096,5.705,5.7212,5.7174,5.7186,5.7188,5.7201,5.721,5.72,5.7024,0,0,0,0,0,5.6536,5.6605,5.6668,5.6755,5.6783,5.6825,5.6865,5.6878,5.6935,5.6957,5.6998,5.7052,5.7118,5.7161,5.7225,5.7331,5.7345,5.7376,5.7386,5.7394,5.7403,5.7462,5.7476,5.732,5.732,5.732,0,0,5.6568,5.6619,5.6661,5.676,5.6804,5.6873,5.6844,5.6919,5.697,5.6968,5.706,5.7092,5.7153,5.7254,5.73,5.7283,5.745,5.7403,5.7409,5.7414,5.747,5.7485,5.7498,5.7325,5.7324,5.7324,0,0,5.6663,5.6709,5.6788,5.6833,5.6901,5.6928,5.6947,5.7014,5.7036,5.713,5.7129,5.719,5.7304,5.7348,5.7385,5.7499,5.7494,5.7519,5.7569,5.7626,5.7638,5.7649,5.769,5.7704,5.7529,5.7529,5.7529,0,5.6694,5.6802,5.6827,5.6904,5.6947,5.6951,5.703,5.7072,5.7156,5.7185,5.7165,5.7309,5.735,5.7462,5.749,5.752,5.7541,5.7511,5.7635,5.7646,5.7657,5.7695,5.7711,5.7531,5.7531,5.7531,5.7531,0,5.6837,5.6911,5.6966,5.705,5.71,5.7177,5.7213,5.726,5.7269,5.7298,5.7393,5.7444,5.7518,5.7546,5.7554,5.7659,5.7646,5.763,5.7592,5.7674,5.771,5.7725,5.7535,5.7534,5.7533,5.7533,0,0,5.6942,5.7042,5.7061,5.71,5.7176,5.7233,5.731,5.7386,5.7425,5.7484,5.7548,5.7646,5.7632,5.7675,5.7688,5.7738,5.7825,5.7717,5.7718,5.7735,5.7943,5.7954,5.7971,5.7823,5.7826,5.7829,5.7938,0,5.7045,5.7184,5.721,5.7331,5.74,5.7405,5.7472,5.7525,5.7555,5.7616,5.7648,5.7717,5.7694,5.772,5.777,5.7804,5.7867,5.7797,5.7882,5.7885,5.7866,5.799,5.8001,5.8102,5.7952,5.7955,5.7957,0,5.7183,5.7248,5.7376,5.7444,5.7474,5.7534,5.7606,5.7665,5.7725,5.7743,5.7792,5.78,5.7879,5.7839,5.7948,5.7899,5.7936,5.7958,5.7963,5.7971,5.7925,5.8,5.8135,5.8149,5.7979,5.7978,5.7976,0,5.7247,5.7366,5.7459,5.7492,5.7573,5.7615,5.7651,5.7709,5.7753,5.7815,5.7844,5.7913,5.7951,5.8004,5.8031,5.8,5.8138,5.81,5.8154,5.8153,5.8181,5.8179,5.8323,5.8206,5.8206,5.8206,5.8206,0,5.7359,5.7437,5.7489,5.7546,5.7633,5.7662,5.7747,5.7782,5.7833,5.7896,5.7904,5.7962,5.7994,5.8056,5.8078,5.8164,5.8181,5.8197,5.8201,5.8196,5.8194,5.8219,5.8213,5.821,5.8209,5.8208,5.8208,0,5.7445,5.7483,5.7584,5.7654,5.7673,5.7735,5.7794,5.7848,5.7879,5.7958,5.7978,5.8024,5.8098,5.8131,5.8221,5.8235,5.8334,5.8334,5.8315,5.8316,5.8368,5.8363,5.8532,5.8556,5.8424,5.8426,5.8427,0,5.7513,5.7574,5.7651,5.7695,5.7733,5.7802,5.7848,5.7879,5.7926,5.8,5.8045,5.812,5.8182,5.83,5.834,5.841,5.8411,5.8465,5.8421,5.8414,5.8411,5.8407,5.8413,5.8473,5.8474,5.8475,5.8476,0,5.7631,5.7647,5.7714,5.7788,5.7843,5.7903,5.796,5.7995,5.8034,5.8087,5.8164,5.8212,5.8306,5.8379,5.8452,5.8486,5.8488,5.849,5.8506,5.8501,5.8487,5.8495,5.8336,5.8486,5.8485,5.8484,5.8484,5.8483,5.771,5.7765,5.7828,5.7902,5.795,5.8004,5.8059,5.8097,5.8163,5.8243,5.8257,5.8339,5.8398,5.8496,5.8533,5.8597,5.8583,5.8606,5.8612,5.8617,5.8621,5.8478,5.861,5.861,5.861,5.8609,5.8609,0,5.7828,5.787,5.7938,5.802,5.8078,5.8077,5.8141,5.819,5.8263,5.8319,5.838,5.8469,5.8541,5.8588,5.8661,5.8702,5.8705,5.872,5.8717,5.8725,5.8629,5.8607,5.8717,5.8717,5.8717,5.8717,5.8717,5.8717,5.7896,5.7988,5.8012,5.8128,5.8169,5.8251,5.8288,5.8337,5.8382,5.8482,5.8543,5.8574,5.8627,5.8703,5.8769,5.8781,5.8807,5.8823,5.8834,5.8743,5.8732,5.8721,5.8701,5.8829,5.8829,5.8925,5.8926,5.8927]}]]